owner,sensor,date,latitude,longitude,vertical_datum,sea_water_practical_salinity,qcFlag 
DISL,ioos:station:DISL:MHPA:1,2019-05-01T00:00:00Z,30.6671,-87.9365,1.1,0.1,11111222 
DISL,ioos:station:DISL:MHPA:1,2019-05-01T00:30:00Z,30.6671,-87.9365,1.1,0.1,11111222 
DISL,ioos:station:DISL:MHPA:1,2019-05-01T01:00:00Z,30.6671,-87.9365,1.2,0.1,11111222 
DISL,ioos:station:DISL:MHPA:1,2019-05-01T01:30:00Z,30.6671,-87.9365,1.2,0.1,11111222 
DISL,ioos:station:DISL:MHPA:1,2019-05-01T02:00:00Z,30.6671,-87.9365,1.2,0.1,11111222 
DISL,ioos:station:DISL:MHPA:1,2019-05-01T02:30:00Z,30.6671,-87.9365,1.2,0.1,11111222 
DISL,ioos:station:DISL:MHPA:1,2019-05-01T03:00:00Z,30.6671,-87.9365,1.2,0.1,11111222 
DISL,ioos:station:DISL:MHPA:1,2019-05-01T03:30:00Z,30.6671,-87.9365,1.2,0.1,11111222 
DISL,ioos:station:DISL:MHPA:1,2019-05-01T04:00:00Z,30.6671,-87.9365,1.2,0.1,11111222 
DISL,ioos:station:DISL:MHPA:1,2019-05-01T04:30:00Z,30.6671,-87.9365,1.2,0.1,11111222 
DISL,ioos:station:DISL:MHPA:1,2019-05-01T05:00:00Z,30.6671,-87.9365,1.259,0.05,11111222 
DISL,ioos:station:DISL:MHPA:1,2019-05-01T05:30:00Z,30.6671,-87.9365,1.3,0.1,11111222 
DISL,ioos:station:DISL:MHPA:1,2019-05-01T06:00:00Z,30.6671,-87.9365,1.3,0.1,11111222 
DISL,ioos:station:DISL:MHPA:1,2019-05-01T06:30:00Z,30.6671,-87.9365,1.279,0.05,11111222 
DISL,ioos:station:DISL:MHPA:1,2019-05-01T07:00:00Z,30.6671,-87.9365,1.292,0.05,11111222 
DISL,ioos:station:DISL:MHPA:1,2019-05-01T07:30:00Z,30.6671,-87.9365,1.3,0.1,11111222 
DISL,ioos:station:DISL:MHPA:1,2019-05-01T08:00:00Z,30.6671,-87.9365,1.271,0.05,11111222 
DISL,ioos:station:DISL:MHPA:1,2019-05-01T08:30:00Z,30.6671,-87.9365,1.3,0.1,11111222 
DISL,ioos:station:DISL:MHPA:1,2019-05-01T09:00:00Z,30.6671,-87.9365,1.228,0.05,11111222 
DISL,ioos:station:DISL:MHPA:1,2019-05-01T09:30:00Z,30.6671,-87.9365,1.2,0.1,11111222 
DISL,ioos:station:DISL:MHPA:1,2019-05-01T10:00:00Z,30.6671,-87.9365,1.189,0.05,11111222 
DISL,ioos:station:DISL:MHPA:1,2019-05-01T10:30:00Z,30.6671,-87.9365,1.2,0.1,11111222 
DISL,ioos:station:DISL:MHPA:1,2019-05-01T11:00:00Z,30.6671,-87.9365,1.172,0.05,11111222 
DISL,ioos:station:DISL:MHPA:1,2019-05-01T11:30:00Z,30.6671,-87.9365,1.2,0.1,11111222 
DISL,ioos:station:DISL:MHPA:1,2019-05-01T12:00:00Z,30.6671,-87.9365,1.158,0.05,11111222 
DISL,ioos:station:DISL:MHPA:1,2019-05-01T12:30:00Z,30.6671,-87.9365,1.2,0.1,11111222 
DISL,ioos:station:DISL:MHPA:1,2019-05-01T13:00:00Z,30.6671,-87.9365,1.158,0.05,11111222 
DISL,ioos:station:DISL:MHPA:1,2019-05-01T13:30:00Z,30.6671,-87.9365,1.2,0.1,11111222 
DISL,ioos:station:DISL:MHPA:1,2019-05-01T14:00:00Z,30.6671,-87.9365,1.168,0.05,11111222 
DISL,ioos:station:DISL:MHPA:1,2019-05-01T14:30:00Z,30.6671,-87.9365,1.2,0.1,11111222 
DISL,ioos:station:DISL:MHPA:1,2019-05-01T15:00:00Z,30.6671,-87.9365,1.2,0.05,11111222 
DISL,ioos:station:DISL:MHPA:1,2019-05-01T15:30:00Z,30.6671,-87.9365,1.2,0.1,11111222 
DISL,ioos:station:DISL:MHPA:1,2019-05-01T16:00:00Z,30.6671,-87.9365,1.207,0.05,11111222 
DISL,ioos:station:DISL:MHPA:1,2019-05-01T16:30:00Z,30.6671,-87.9365,1.2,0.1,11111222 
DISL,ioos:station:DISL:MHPA:1,2019-05-01T17:00:00Z,30.6671,-87.9365,1.224,0.05,11111222 
DISL,ioos:station:DISL:MHPA:1,2019-05-01T17:30:00Z,30.6671,-87.9365,1.2,0.1,11111222 
DISL,ioos:station:DISL:MHPA:1,2019-05-01T18:00:00Z,30.6671,-87.9365,1.267,0.05,11111222 
DISL,ioos:station:DISL:MHPA:1,2019-05-01T18:30:00Z,30.6671,-87.9365,1.3,0.1,11111222 
DISL,ioos:station:DISL:MHPA:1,2019-05-01T19:00:00Z,30.6671,-87.9365,1.248,0.05,11111222 
DISL,ioos:station:DISL:MHPA:1,2019-05-01T19:30:00Z,30.6671,-87.9365,1.2,0.1,11111222 
DISL,ioos:station:DISL:MHPA:1,2019-05-01T20:00:00Z,30.6671,-87.9365,1.201,0.05,11111222 
DISL,ioos:station:DISL:MHPA:1,2019-05-01T20:30:00Z,30.6671,-87.9365,1.2,0.1,11111222 
DISL,ioos:station:DISL:MHPA:1,2019-05-01T21:00:00Z,30.6671,-87.9365,1.139,0.05,11111222 
DISL,ioos:station:DISL:MHPA:1,2019-05-01T21:30:00Z,30.6671,-87.9365,1.1,0.1,11111222 
DISL,ioos:station:DISL:MHPA:1,2019-05-01T22:00:00Z,30.6671,-87.9365,1.097,0.05,11111222 
DISL,ioos:station:DISL:MHPA:1,2019-05-01T22:30:00Z,30.6671,-87.9365,1.1,0.1,11111222 
DISL,ioos:station:DISL:MHPA:1,2019-05-01T23:00:00Z,30.6671,-87.9365,1.067,0.05,11111222 
DISL,ioos:station:DISL:MHPA:1,2019-05-01T23:30:00Z,30.6671,-87.9365,1.0,0.1,11111222 
DISL,ioos:station:DISL:MHPA:1,2019-05-02T00:00:00Z,30.6671,-87.9365,1.027,0.05,11111222 
DISL,ioos:station:DISL:MHPA:1,2019-05-02T00:30:00Z,30.6671,-87.9365,1.0,0.1,11111222 
DISL,ioos:station:DISL:MHPA:1,2019-05-02T01:00:00Z,30.6671,-87.9365,1.034,0.05,11111222 
DISL,ioos:station:DISL:MHPA:1,2019-05-02T01:30:00Z,30.6671,-87.9365,1.0,0.1,11111222 
DISL,ioos:station:DISL:MHPA:1,2019-05-02T02:00:00Z,30.6671,-87.9365,1.072,0.05,11111222 
DISL,ioos:station:DISL:MHPA:1,2019-05-02T02:30:00Z,30.6671,-87.9365,1.1,0.1,11111222 
DISL,ioos:station:DISL:MHPA:1,2019-05-02T03:00:00Z,30.6671,-87.9365,1.128,0.05,11111222 
DISL,ioos:station:DISL:MHPA:1,2019-05-02T03:30:00Z,30.6671,-87.9365,1.2,0.1,11111222 
DISL,ioos:station:DISL:MHPA:1,2019-05-02T04:00:00Z,30.6671,-87.9365,1.166,0.05,11111222 
DISL,ioos:station:DISL:MHPA:1,2019-05-02T04:30:00Z,30.6671,-87.9365,1.2,0.1,11111222 
DISL,ioos:station:DISL:MHPA:1,2019-05-02T05:00:00Z,30.6671,-87.9365,1.187,0.05,11111222 
DISL,ioos:station:DISL:MHPA:1,2019-05-02T05:30:00Z,30.6671,-87.9365,1.2,0.1,11111222 
DISL,ioos:station:DISL:MHPA:1,2019-05-02T06:00:00Z,30.6671,-87.9365,1.183,0.05,11111222 
DISL,ioos:station:DISL:MHPA:1,2019-05-02T06:30:00Z,30.6671,-87.9365,1.2,0.1,11111222 
DISL,ioos:station:DISL:MHPA:1,2019-05-02T07:00:00Z,30.6671,-87.9365,1.184,0.05,11111222 
DISL,ioos:station:DISL:MHPA:1,2019-05-02T07:30:00Z,30.6671,-87.9365,1.2,0.1,11111222 
DISL,ioos:station:DISL:MHPA:1,2019-05-02T08:00:00Z,30.6671,-87.9365,1.196,0.05,11111222 
DISL,ioos:station:DISL:MHPA:1,2019-05-02T08:30:00Z,30.6671,-87.9365,1.2,0.1,11111222 
DISL,ioos:station:DISL:MHPA:1,2019-05-02T09:00:00Z,30.6671,-87.9365,1.174,0.05,11111222 
DISL,ioos:station:DISL:MHPA:1,2019-05-02T09:30:00Z,30.6671,-87.9365,1.2,0.1,11111222 
DISL,ioos:station:DISL:MHPA:1,2019-05-02T10:00:00Z,30.6671,-87.9365,1.138,0.05,11111222 
DISL,ioos:station:DISL:MHPA:1,2019-05-02T10:30:00Z,30.6671,-87.9365,1.1,0.1,11111222 
DISL,ioos:station:DISL:MHPA:1,2019-05-02T11:00:00Z,30.6671,-87.9365,1.112,0.05,11111222 
DISL,ioos:station:DISL:MHPA:1,2019-05-02T11:30:00Z,30.6671,-87.9365,1.1,0.1,11111222 
DISL,ioos:station:DISL:MHPA:1,2019-05-02T12:00:00Z,30.6671,-87.9365,1.105,0.05,11111222 
DISL,ioos:station:DISL:MHPA:1,2019-05-02T12:30:00Z,30.6671,-87.9365,1.1,0.1,11111222 
DISL,ioos:station:DISL:MHPA:1,2019-05-02T13:00:00Z,30.6671,-87.9365,1.125,0.05,11111222 
DISL,ioos:station:DISL:MHPA:1,2019-05-02T13:30:00Z,30.6671,-87.9365,1.1,0.1,11111222 
DISL,ioos:station:DISL:MHPA:1,2019-05-02T14:00:00Z,30.6671,-87.9365,1.2,0.1,11111222 
DISL,ioos:station:DISL:MHPA:1,2019-05-02T14:30:00Z,30.6671,-87.9365,1.2,0.1,11111222 
DISL,ioos:station:DISL:MHPA:1,2019-05-02T15:00:00Z,30.6671,-87.9365,1.2,0.1,11111222 
DISL,ioos:station:DISL:MHPA:1,2019-05-02T15:30:00Z,30.6671,-87.9365,1.3,0.1,11111222 
DISL,ioos:station:DISL:MHPA:1,2019-05-02T16:00:00Z,30.6671,-87.9365,1.3,0.1,11111222 
DISL,ioos:station:DISL:MHPA:1,2019-05-02T16:30:00Z,30.6671,-87.9365,1.3,0.1,11111222 
DISL,ioos:station:DISL:MHPA:1,2019-05-02T17:00:00Z,30.6671,-87.9365,1.3,0.1,11111222 
DISL,ioos:station:DISL:MHPA:1,2019-05-02T17:30:00Z,30.6671,-87.9365,1.3,0.1,11111222 
DISL,ioos:station:DISL:MHPA:1,2019-05-02T18:00:00Z,30.6671,-87.9365,1.3,0.1,11111222 
DISL,ioos:station:DISL:MHPA:1,2019-05-02T18:30:00Z,30.6671,-87.9365,1.2,0.1,11111222 
DISL,ioos:station:DISL:MHPA:1,2019-05-02T19:00:00Z,30.6671,-87.9365,1.2,0.1,11111222 
DISL,ioos:station:DISL:MHPA:1,2019-05-02T19:30:00Z,30.6671,-87.9365,1.2,0.1,11111222 
DISL,ioos:station:DISL:MHPA:1,2019-05-02T20:00:00Z,30.6671,-87.9365,1.1,0.1,11111222 
DISL,ioos:station:DISL:MHPA:1,2019-05-02T20:30:00Z,30.6671,-87.9365,1.1,0.1,11111222 
DISL,ioos:station:DISL:MHPA:1,2019-05-02T21:00:00Z,30.6671,-87.9365,1.1,0.1,11111222 
DISL,ioos:station:DISL:MHPA:1,2019-05-02T21:30:00Z,30.6671,-87.9365,1.0,0.1,11111222 
DISL,ioos:station:DISL:MHPA:1,2019-05-02T22:00:00Z,30.6671,-87.9365,1.0,0.1,11111222 
DISL,ioos:station:DISL:MHPA:1,2019-05-02T22:30:00Z,30.6671,-87.9365,1.0,0.1,11111222 
DISL,ioos:station:DISL:MHPA:1,2019-05-02T23:00:00Z,30.6671,-87.9365,1.0,0.1,11111222 
DISL,ioos:station:DISL:MHPA:1,2019-05-02T23:30:00Z,30.6671,-87.9365,0.9,0.1,11111222 
DISL,ioos:station:DISL:MHPA:1,2019-05-03T00:00:00Z,30.6671,-87.9365,0.9,0.1,11111222 
DISL,ioos:station:DISL:MHPA:1,2019-05-03T00:30:00Z,30.6671,-87.9365,0.9,0.1,11111222 
DISL,ioos:station:DISL:MHPA:1,2019-05-03T01:00:00Z,30.6671,-87.9365,0.9,0.1,11111222 
DISL,ioos:station:DISL:MHPA:1,2019-05-03T01:30:00Z,30.6671,-87.9365,0.9,0.1,11111222 
DISL,ioos:station:DISL:MHPA:1,2019-05-03T02:00:00Z,30.6671,-87.9365,0.9,0.1,11111222 
DISL,ioos:station:DISL:MHPA:1,2019-05-03T02:30:00Z,30.6671,-87.9365,0.9,0.1,11111222 
DISL,ioos:station:DISL:MHPA:1,2019-05-03T03:00:00Z,30.6671,-87.9365,1.0,0.1,11111222 
DISL,ioos:station:DISL:MHPA:1,2019-05-03T03:30:00Z,30.6671,-87.9365,1.0,0.1,11111222 
DISL,ioos:station:DISL:MHPA:1,2019-05-03T04:00:00Z,30.6671,-87.9365,1.1,0.1,11111222 
DISL,ioos:station:DISL:MHPA:1,2019-05-03T04:30:00Z,30.6671,-87.9365,1.0,0.1,11111222 
DISL,ioos:station:DISL:MHPA:1,2019-05-03T05:00:00Z,30.6671,-87.9365,1.1,0.1,11111222 
DISL,ioos:station:DISL:MHPA:1,2019-05-03T05:30:00Z,30.6671,-87.9365,1.1,0.1,11111222 
DISL,ioos:station:DISL:MHPA:1,2019-05-03T06:00:00Z,30.6671,-87.9365,1.1,0.1,11111222 
DISL,ioos:station:DISL:MHPA:1,2019-05-03T06:30:00Z,30.6671,-87.9365,1.1,0.1,11111222 
DISL,ioos:station:DISL:MHPA:1,2019-05-03T07:00:00Z,30.6671,-87.9365,1.1,0.1,11111222 
DISL,ioos:station:DISL:MHPA:1,2019-05-03T07:30:00Z,30.6671,-87.9365,1.1,0.1,11111222 
DISL,ioos:station:DISL:MHPA:1,2019-05-03T08:00:00Z,30.6671,-87.9365,1.1,0.1,11111222 
DISL,ioos:station:DISL:MHPA:1,2019-05-03T08:30:00Z,30.6671,-87.9365,1.1,0.1,11111222 
DISL,ioos:station:DISL:MHPA:1,2019-05-03T09:00:00Z,30.6671,-87.9365,1.068,0.05,11111222 
DISL,ioos:station:DISL:MHPA:1,2019-05-03T09:30:00Z,30.6671,-87.9365,1.1,0.1,11111222 
DISL,ioos:station:DISL:MHPA:1,2019-05-03T10:00:00Z,30.6671,-87.9365,1.069,0.05,11111222 
DISL,ioos:station:DISL:MHPA:1,2019-05-03T10:30:00Z,30.6671,-87.9365,1.1,0.1,11111222 
DISL,ioos:station:DISL:MHPA:1,2019-05-03T11:00:00Z,30.6671,-87.9365,1.041,0.05,11111222 
DISL,ioos:station:DISL:MHPA:1,2019-05-03T11:30:00Z,30.6671,-87.9365,1.0,0.1,11111222 
DISL,ioos:station:DISL:MHPA:1,2019-05-03T12:00:00Z,30.6671,-87.9365,1.048,0.05,11111222 
DISL,ioos:station:DISL:MHPA:1,2019-05-03T12:30:00Z,30.6671,-87.9365,1.1,0.1,11111222 
DISL,ioos:station:DISL:MHPA:1,2019-05-03T13:00:00Z,30.6671,-87.9365,1.089,0.05,11111222 
DISL,ioos:station:DISL:MHPA:1,2019-05-03T13:30:00Z,30.6671,-87.9365,1.1,0.1,11111222 
DISL,ioos:station:DISL:MHPA:1,2019-05-03T14:00:00Z,30.6671,-87.9365,1.115,0.05,11111222 
DISL,ioos:station:DISL:MHPA:1,2019-05-03T14:30:00Z,30.6671,-87.9365,1.2,0.1,11111222 
DISL,ioos:station:DISL:MHPA:1,2019-05-03T15:00:00Z,30.6671,-87.9365,1.171,0.05,11111222 
DISL,ioos:station:DISL:MHPA:1,2019-05-03T15:30:00Z,30.6671,-87.9365,1.2,0.1,11111222 
DISL,ioos:station:DISL:MHPA:1,2019-05-03T16:00:00Z,30.6671,-87.9365,1.205,0.05,11111222 
DISL,ioos:station:DISL:MHPA:1,2019-05-03T16:30:00Z,30.6671,-87.9365,1.2,0.1,11111222 
DISL,ioos:station:DISL:MHPA:1,2019-05-03T17:00:00Z,30.6671,-87.9365,1.168,0.05,11111222 
DISL,ioos:station:DISL:MHPA:1,2019-05-03T17:30:00Z,30.6671,-87.9365,1.2,0.1,11111222 
DISL,ioos:station:DISL:MHPA:1,2019-05-03T18:00:00Z,30.6671,-87.9365,1.163,0.05,11111222 
DISL,ioos:station:DISL:MHPA:1,2019-05-03T18:30:00Z,30.6671,-87.9365,1.2,0.1,11111222 
DISL,ioos:station:DISL:MHPA:1,2019-05-03T19:00:00Z,30.6671,-87.9365,1.146,0.05,11111222 
DISL,ioos:station:DISL:MHPA:1,2019-05-03T19:30:00Z,30.6671,-87.9365,1.1,0.1,11111222 
DISL,ioos:station:DISL:MHPA:1,2019-05-03T20:00:00Z,30.6671,-87.9365,1.048,0.05,11111222 
DISL,ioos:station:DISL:MHPA:1,2019-05-03T20:30:00Z,30.6671,-87.9365,1.0,0.1,11111222 
DISL,ioos:station:DISL:MHPA:1,2019-05-03T21:00:00Z,30.6671,-87.9365,0.965,0.05,11111222 
DISL,ioos:station:DISL:MHPA:1,2019-05-03T21:30:00Z,30.6671,-87.9365,0.9,0.1,11111222 
DISL,ioos:station:DISL:MHPA:1,2019-05-03T22:00:00Z,30.6671,-87.9365,0.916,0.05,11111222 
DISL,ioos:station:DISL:MHPA:1,2019-05-03T22:30:00Z,30.6671,-87.9365,0.9,0.1,11111222 
DISL,ioos:station:DISL:MHPA:1,2019-05-03T23:00:00Z,30.6671,-87.9365,0.834,0.05,11111222 
DISL,ioos:station:DISL:MHPA:1,2019-05-03T23:30:00Z,30.6671,-87.9365,0.8,0.1,11111222 
DISL,ioos:station:DISL:MHPA:1,2019-05-04T00:00:00Z,30.6671,-87.9365,0.792,0.05,11111222 
DISL,ioos:station:DISL:MHPA:1,2019-05-04T00:30:00Z,30.6671,-87.9365,0.8,0.1,11111222 
DISL,ioos:station:DISL:MHPA:1,2019-05-04T01:00:00Z,30.6671,-87.9365,0.777,0.05,11111222 
DISL,ioos:station:DISL:MHPA:1,2019-05-04T01:30:00Z,30.6671,-87.9365,0.8,0.1,11111222 
DISL,ioos:station:DISL:MHPA:1,2019-05-04T02:00:00Z,30.6671,-87.9365,0.756,0.05,11111222 
DISL,ioos:station:DISL:MHPA:1,2019-05-04T02:30:00Z,30.6671,-87.9365,0.8,0.1,11111222 
DISL,ioos:station:DISL:MHPA:1,2019-05-04T03:00:00Z,30.6671,-87.9365,0.784,0.05,11111222 
DISL,ioos:station:DISL:MHPA:1,2019-05-04T03:30:00Z,30.6671,-87.9365,0.8,0.1,11111222 
DISL,ioos:station:DISL:MHPA:1,2019-05-04T04:00:00Z,30.6671,-87.9365,0.817,0.05,11111222 
DISL,ioos:station:DISL:MHPA:1,2019-05-04T04:30:00Z,30.6671,-87.9365,0.9,0.1,11111222 
DISL,ioos:station:DISL:MHPA:1,2019-05-04T05:00:00Z,30.6671,-87.9365,0.904,0.06,11111222 
DISL,ioos:station:DISL:MHPA:1,2019-05-04T05:30:00Z,30.6671,-87.9365,0.9,0.1,11111222 
DISL,ioos:station:DISL:MHPA:1,2019-05-04T06:00:00Z,30.6671,-87.9365,0.969,0.05,11111222 
DISL,ioos:station:DISL:MHPA:1,2019-05-04T06:30:00Z,30.6671,-87.9365,1.0,0.1,11111222 
DISL,ioos:station:DISL:MHPA:1,2019-05-04T07:00:00Z,30.6671,-87.9365,0.998,0.05,11111222 
DISL,ioos:station:DISL:MHPA:1,2019-05-04T07:30:00Z,30.6671,-87.9365,1.0,0.1,11111222 
DISL,ioos:station:DISL:MHPA:1,2019-05-04T08:00:00Z,30.6671,-87.9365,1.07,0.05,11111222 
DISL,ioos:station:DISL:MHPA:1,2019-05-04T08:30:00Z,30.6671,-87.9365,1.1,0.1,11111222 
DISL,ioos:station:DISL:MHPA:1,2019-05-04T09:00:00Z,30.6671,-87.9365,1.118,0.05,11111222 
DISL,ioos:station:DISL:MHPA:1,2019-05-04T09:30:00Z,30.6671,-87.9365,1.1,0.1,11111222 
DISL,ioos:station:DISL:MHPA:1,2019-05-04T10:00:00Z,30.6671,-87.9365,1.085,0.05,11111222 
DISL,ioos:station:DISL:MHPA:1,2019-05-04T10:30:00Z,30.6671,-87.9365,1.1,0.1,11111222 
DISL,ioos:station:DISL:MHPA:1,2019-05-04T11:00:00Z,30.6671,-87.9365,1.085,0.05,11111222 
DISL,ioos:station:DISL:MHPA:1,2019-05-04T11:30:00Z,30.6671,-87.9365,1.1,0.1,11111222 
DISL,ioos:station:DISL:MHPA:1,2019-05-04T12:00:00Z,30.6671,-87.9365,1.083,0.05,11111222 
DISL,ioos:station:DISL:MHPA:1,2019-05-04T12:30:00Z,30.6671,-87.9365,1.1,0.1,11111222 
DISL,ioos:station:DISL:MHPA:1,2019-05-04T13:00:00Z,30.6671,-87.9365,1.071,0.05,11111222 
DISL,ioos:station:DISL:MHPA:1,2019-05-04T13:30:00Z,30.6671,-87.9365,1.1,0.1,11111222 
DISL,ioos:station:DISL:MHPA:1,2019-05-04T14:00:00Z,30.6671,-87.9365,1.111,0.05,11111222 
DISL,ioos:station:DISL:MHPA:1,2019-05-04T14:30:00Z,30.6671,-87.9365,1.1,0.1,11111222 
DISL,ioos:station:DISL:MHPA:1,2019-05-04T15:00:00Z,30.6671,-87.9365,1.129,0.05,11111222 
DISL,ioos:station:DISL:MHPA:1,2019-05-04T15:30:00Z,30.6671,-87.9365,1.2,0.1,11111222 
DISL,ioos:station:DISL:MHPA:1,2019-05-04T16:00:00Z,30.6671,-87.9365,1.162,0.05,11111222 
DISL,ioos:station:DISL:MHPA:1,2019-05-04T16:30:00Z,30.6671,-87.9365,1.2,0.1,11111222 
DISL,ioos:station:DISL:MHPA:1,2019-05-04T17:00:00Z,30.6671,-87.9365,1.199,0.05,11111222 
DISL,ioos:station:DISL:MHPA:1,2019-05-04T17:30:00Z,30.6671,-87.9365,1.2,0.1,11111222 
DISL,ioos:station:DISL:MHPA:1,2019-05-04T18:00:00Z,30.6671,-87.9365,1.208,0.05,11111222 
DISL,ioos:station:DISL:MHPA:1,2019-05-04T18:30:00Z,30.6671,-87.9365,1.2,0.1,11111222 
DISL,ioos:station:DISL:MHPA:1,2019-05-04T19:00:00Z,30.6671,-87.9365,1.215,0.05,11111222 
DISL,ioos:station:DISL:MHPA:1,2019-05-04T19:30:00Z,30.6671,-87.9365,1.2,0.1,11111222 
DISL,ioos:station:DISL:MHPA:1,2019-05-04T20:00:00Z,30.6671,-87.9365,1.283,0.05,11111222 
DISL,ioos:station:DISL:MHPA:1,2019-05-04T20:30:00Z,30.6671,-87.9365,1.2,0.1,11111222 
DISL,ioos:station:DISL:MHPA:1,2019-05-04T21:00:00Z,30.6671,-87.9365,1.161,0.05,11111222 
DISL,ioos:station:DISL:MHPA:1,2019-05-04T21:30:00Z,30.6671,-87.9365,1.1,0.1,11111222 
DISL,ioos:station:DISL:MHPA:1,2019-05-04T22:00:00Z,30.6671,-87.9365,1.074,0.05,11111222 
DISL,ioos:station:DISL:MHPA:1,2019-05-04T22:30:00Z,30.6671,-87.9365,1.1,0.1,11111222 
DISL,ioos:station:DISL:MHPA:1,2019-05-04T23:00:00Z,30.6671,-87.9365,1.054,0.05,11111222 
DISL,ioos:station:DISL:MHPA:1,2019-05-04T23:30:00Z,30.6671,-87.9365,1.0,0.1,11111222 
DISL,ioos:station:DISL:MHPA:1,2019-05-05T00:00:00Z,30.6671,-87.9365,1.016,0.05,11111222 
DISL,ioos:station:DISL:MHPA:1,2019-05-05T00:30:00Z,30.6671,-87.9365,1.0,0.1,11111222 
DISL,ioos:station:DISL:MHPA:1,2019-05-05T01:00:00Z,30.6671,-87.9365,0.952,0.05,11111222 
DISL,ioos:station:DISL:MHPA:1,2019-05-05T01:30:00Z,30.6671,-87.9365,0.9,0.1,11111222 
DISL,ioos:station:DISL:MHPA:1,2019-05-05T02:00:00Z,30.6671,-87.9365,0.875,0.05,11111222 
DISL,ioos:station:DISL:MHPA:1,2019-05-05T02:30:00Z,30.6671,-87.9365,0.9,0.1,11111222 
DISL,ioos:station:DISL:MHPA:1,2019-05-05T03:00:00Z,30.6671,-87.9365,0.855,0.06,11111222 
DISL,ioos:station:DISL:MHPA:1,2019-05-05T03:30:00Z,30.6671,-87.9365,0.9,0.1,11111222 
DISL,ioos:station:DISL:MHPA:1,2019-05-05T04:00:00Z,30.6671,-87.9365,0.861,0.06,11111222 
DISL,ioos:station:DISL:MHPA:1,2019-05-05T04:30:00Z,30.6671,-87.9365,0.9,0.1,11111222 
DISL,ioos:station:DISL:MHPA:1,2019-05-05T05:00:00Z,30.6671,-87.9365,0.921,0.06,11111222 
DISL,ioos:station:DISL:MHPA:1,2019-05-05T05:30:00Z,30.6671,-87.9365,0.9,0.1,11111222 
DISL,ioos:station:DISL:MHPA:1,2019-05-05T06:00:00Z,30.6671,-87.9365,0.97,0.06,11111222 
DISL,ioos:station:DISL:MHPA:1,2019-05-05T06:30:00Z,30.6671,-87.9365,1.0,0.1,11111222 
DISL,ioos:station:DISL:MHPA:1,2019-05-05T07:00:00Z,30.6671,-87.9365,1.015,0.06,11111222 
DISL,ioos:station:DISL:MHPA:1,2019-05-05T07:30:00Z,30.6671,-87.9365,1.0,0.1,11111222 
DISL,ioos:station:DISL:MHPA:1,2019-05-05T08:00:00Z,30.6671,-87.9365,1.038,0.06,11111222 
DISL,ioos:station:DISL:MHPA:1,2019-05-05T08:30:00Z,30.6671,-87.9365,1.1,0.1,11111222 
DISL,ioos:station:DISL:MHPA:1,2019-05-05T09:00:00Z,30.6671,-87.9365,1.039,0.06,11111222 
DISL,ioos:station:DISL:MHPA:1,2019-05-05T09:30:00Z,30.6671,-87.9365,1.0,0.1,11111222 
DISL,ioos:station:DISL:MHPA:1,2019-05-05T10:00:00Z,30.6671,-87.9365,1.065,0.06,11111222 
DISL,ioos:station:DISL:MHPA:1,2019-05-05T10:30:00Z,30.6671,-87.9365,1.1,0.1,11111222 
DISL,ioos:station:DISL:MHPA:1,2019-05-05T11:00:00Z,30.6671,-87.9365,1.028,0.06,11111222 
DISL,ioos:station:DISL:MHPA:1,2019-05-05T11:30:00Z,30.6671,-87.9365,1.0,0.1,11111222 
DISL,ioos:station:DISL:MHPA:1,2019-05-05T12:00:00Z,30.6671,-87.9365,1.04,0.06,11111222 
DISL,ioos:station:DISL:MHPA:1,2019-05-05T12:30:00Z,30.6671,-87.9365,1.0,0.1,11111222 
DISL,ioos:station:DISL:MHPA:1,2019-05-05T13:00:00Z,30.6671,-87.9365,1.042,0.06,11111222 
DISL,ioos:station:DISL:MHPA:1,2019-05-05T13:30:00Z,30.6671,-87.9365,1.0,0.1,11111222 
DISL,ioos:station:DISL:MHPA:1,2019-05-05T14:00:00Z,30.6671,-87.9365,1.032,0.06,11111222 
DISL,ioos:station:DISL:MHPA:1,2019-05-05T14:30:00Z,30.6671,-87.9365,1.1,0.1,11111222 
DISL,ioos:station:DISL:MHPA:1,2019-05-05T15:00:00Z,30.6671,-87.9365,1.088,0.06,11111222 
DISL,ioos:station:DISL:MHPA:1,2019-05-05T15:30:00Z,30.6671,-87.9365,1.1,0.1,11111222 
DISL,ioos:station:DISL:MHPA:1,2019-05-05T16:00:00Z,30.6671,-87.9365,1.13,0.06,11111222 
DISL,ioos:station:DISL:MHPA:1,2019-05-05T16:30:00Z,30.6671,-87.9365,1.2,0.1,11111222 
DISL,ioos:station:DISL:MHPA:1,2019-05-05T17:00:00Z,30.6671,-87.9365,1.189,0.06,11111222 
DISL,ioos:station:DISL:MHPA:1,2019-05-05T17:30:00Z,30.6671,-87.9365,1.2,0.1,11111222 
DISL,ioos:station:DISL:MHPA:1,2019-05-05T18:00:00Z,30.6671,-87.9365,1.247,0.06,11111222 
DISL,ioos:station:DISL:MHPA:1,2019-05-05T18:30:00Z,30.6671,-87.9365,1.2,0.1,11111222 
DISL,ioos:station:DISL:MHPA:1,2019-05-05T19:00:00Z,30.6671,-87.9365,1.186,0.06,11111222 
DISL,ioos:station:DISL:MHPA:1,2019-05-05T19:30:00Z,30.6671,-87.9365,1.1,0.1,11111222 
DISL,ioos:station:DISL:MHPA:1,2019-05-05T20:00:00Z,30.6671,-87.9365,1.109,0.06,11111222 
DISL,ioos:station:DISL:MHPA:1,2019-05-05T20:30:00Z,30.6671,-87.9365,1.1,0.1,11111222 
DISL,ioos:station:DISL:MHPA:1,2019-05-05T21:00:00Z,30.6671,-87.9365,1.032,0.06,11111222 
DISL,ioos:station:DISL:MHPA:1,2019-05-05T21:30:00Z,30.6671,-87.9365,1.0,0.1,11111222 
DISL,ioos:station:DISL:MHPA:1,2019-05-05T22:00:00Z,30.6671,-87.9365,0.958,0.06,11111222 
DISL,ioos:station:DISL:MHPA:1,2019-05-05T22:30:00Z,30.6671,-87.9365,0.9,0.1,11111222 
DISL,ioos:station:DISL:MHPA:1,2019-05-05T23:00:00Z,30.6671,-87.9365,0.886,0.06,11111222 
DISL,ioos:station:DISL:MHPA:1,2019-05-05T23:30:00Z,30.6671,-87.9365,0.9,0.1,11111222 
DISL,ioos:station:DISL:MHPA:1,2019-05-06T00:00:00Z,30.6671,-87.9365,0.821,0.06,11111222 
DISL,ioos:station:DISL:MHPA:1,2019-05-06T00:30:00Z,30.6671,-87.9365,0.8,0.1,11111222 
DISL,ioos:station:DISL:MHPA:1,2019-05-06T01:00:00Z,30.6671,-87.9365,0.759,0.06,11111222 
DISL,ioos:station:DISL:MHPA:1,2019-05-06T01:30:00Z,30.6671,-87.9365,0.7,0.1,11111222 
DISL,ioos:station:DISL:MHPA:1,2019-05-06T02:00:00Z,30.6671,-87.9365,0.722,0.06,11111222 
DISL,ioos:station:DISL:MHPA:1,2019-05-06T02:30:00Z,30.6671,-87.9365,0.7,0.1,11111222 
DISL,ioos:station:DISL:MHPA:1,2019-05-06T03:00:00Z,30.6671,-87.9365,0.693,0.06,11111222 
DISL,ioos:station:DISL:MHPA:1,2019-05-06T03:30:00Z,30.6671,-87.9365,0.7,0.1,11111222 
DISL,ioos:station:DISL:MHPA:1,2019-05-06T04:00:00Z,30.6671,-87.9365,0.673,0.06,11111222 
DISL,ioos:station:DISL:MHPA:1,2019-05-06T04:30:00Z,30.6671,-87.9365,0.7,0.1,11111222 
DISL,ioos:station:DISL:MHPA:1,2019-05-06T05:00:00Z,30.6671,-87.9365,0.669,0.06,11111222 
DISL,ioos:station:DISL:MHPA:1,2019-05-06T05:30:00Z,30.6671,-87.9365,0.7,0.1,11111222 
DISL,ioos:station:DISL:MHPA:1,2019-05-06T06:00:00Z,30.6671,-87.9365,0.684,0.06,11111222 
DISL,ioos:station:DISL:MHPA:1,2019-05-06T06:30:00Z,30.6671,-87.9365,0.7,0.1,11111222 
DISL,ioos:station:DISL:MHPA:1,2019-05-06T07:00:00Z,30.6671,-87.9365,0.737,0.06,11111222 
DISL,ioos:station:DISL:MHPA:1,2019-05-06T07:30:00Z,30.6671,-87.9365,0.8,0.1,11111222 
DISL,ioos:station:DISL:MHPA:1,2019-05-06T08:00:00Z,30.6671,-87.9365,0.815,0.06,11111222 
DISL,ioos:station:DISL:MHPA:1,2019-05-06T08:30:00Z,30.6671,-87.9365,0.9,0.1,11111222 
DISL,ioos:station:DISL:MHPA:1,2019-05-06T09:00:00Z,30.6671,-87.9365,0.887,0.06,11111222 
DISL,ioos:station:DISL:MHPA:1,2019-05-06T09:30:00Z,30.6671,-87.9365,0.9,0.1,11111222 
DISL,ioos:station:DISL:MHPA:1,2019-05-06T10:00:00Z,30.6671,-87.9365,0.99,0.06,11111222 
DISL,ioos:station:DISL:MHPA:1,2019-05-06T10:30:00Z,30.6671,-87.9365,1.0,0.1,11111222 
DISL,ioos:station:DISL:MHPA:1,2019-05-06T11:00:00Z,30.6671,-87.9365,1.017,0.06,11111222 
DISL,ioos:station:DISL:MHPA:1,2019-05-06T11:30:00Z,30.6671,-87.9365,1.0,0.1,11111222 
DISL,ioos:station:DISL:MHPA:1,2019-05-06T12:00:00Z,30.6671,-87.9365,1.057,0.06,11111222 
DISL,ioos:station:DISL:MHPA:1,2019-05-06T12:30:00Z,30.6671,-87.9365,1.1,0.1,11111222 
DISL,ioos:station:DISL:MHPA:1,2019-05-06T13:00:00Z,30.6671,-87.9365,1.058,0.06,11111222 
DISL,ioos:station:DISL:MHPA:1,2019-05-06T13:30:00Z,30.6671,-87.9365,1.1,0.1,11111222 
DISL,ioos:station:DISL:MHPA:1,2019-05-06T14:00:00Z,30.6671,-87.9365,1.091,0.06,11111222 
DISL,ioos:station:DISL:MHPA:1,2019-05-06T14:30:00Z,30.6671,-87.9365,1.1,0.1,11111222 
DISL,ioos:station:DISL:MHPA:1,2019-05-06T15:00:00Z,30.6671,-87.9365,1.158,0.06,11111222 
DISL,ioos:station:DISL:MHPA:1,2019-05-06T15:30:00Z,30.6671,-87.9365,1.2,0.1,11111222 
DISL,ioos:station:DISL:MHPA:1,2019-05-06T16:00:00Z,30.6671,-87.9365,1.253,0.06,11111222 
DISL,ioos:station:DISL:MHPA:1,2019-05-06T16:30:00Z,30.6671,-87.9365,1.3,0.1,11111222 